Radiation Dose at Monitoring Post of Fukushima Daini Nuclear Power Station
Date,Time,MP-1(microSv/h),MP-2(microSv/h),MP-3(microSv/h),MP-4(microSv/h),MP-5(microSv/h),MP-6(microSv/h),MP-7(microSv/h),Wind Direction,Wind Velocity(m/s),Rain
2015/05/29,00:00,0.558,0.330,0.593,0.555,0.483,0.255,0.228,south-southwest,6.4,No
2015/05/29,00:10,0.556,0.330,0.597,0.550,0.476,0.255,0.228,south,5.3,No
2015/05/29,00:20,0.556,0.330,0.599,0.556,0.479,0.254,0.227,south-southwest,5.6,No
2015/05/29,00:30,0.559,0.329,0.589,0.554,0.480,0.255,0.228,south-southwest,8.1,No
2015/05/29,00:40,0.554,0.332,0.598,0.553,0.476,0.254,0.228,south-southwest,8.1,No
2015/05/29,00:50,0.560,0.330,0.595,0.558,0.482,0.255,0.228,south-southwest,8.7,No
2015/05/29,01:00,0.554,0.333,0.593,0.550,0.476,0.254,0.227,south-southwest,7.3,No
2015/05/29,01:10,0.557,0.330,0.599,0.555,0.482,0.254,0.229,south-southwest,7.3,No
2015/05/29,01:20,0.559,0.331,0.593,0.554,0.479,0.254,0.229,south-southwest,7.5,No
2015/05/29,01:30,0.553,0.332,0.597,0.552,0.478,0.254,0.228,south-southwest,7.5,No
2015/05/29,01:40,0.561,0.330,0.597,0.556,0.483,0.256,0.230,south-southwest,8.3,No
2015/05/29,01:50,0.554,0.332,0.591,0.551,0.476,0.254,0.228,south-southwest,8.7,No
2015/05/29,02:00,0.560,0.331,0.600,0.555,0.483,0.253,0.228,south-southwest,8.6,No
2015/05/29,02:10,0.558,0.332,0.592,0.555,0.480,0.254,0.229,south-southwest,8.4,No
2015/05/29,02:20,0.556,0.331,0.597,0.553,0.478,0.253,0.229,south-southwest,8.9,No
2015/05/29,02:30,0.558,0.329,0.598,0.555,0.482,0.254,0.228,south-southwest,8.1,No
2015/05/29,02:40,0.553,0.333,0.595,0.551,0.479,0.253,0.228,south-southwest,8.0,No
2015/05/29,02:50,0.559,0.329,0.600,0.556,0.482,0.255,0.229,south-southwest,6.6,No
2015/05/29,03:00,0.554,0.332,0.593,0.554,0.479,0.254,0.228,south-southwest,7.3,No
2015/05/29,03:10,0.560,0.330,0.597,0.556,0.480,0.254,0.229,south-southwest,7.3,No
2015/05/29,03:20,0.556,0.332,0.599,0.554,0.482,0.253,0.227,south-southwest,7.0,No
2015/05/29,03:30,0.554,0.330,0.592,0.550,0.477,0.253,0.229,south-southwest,7.3,No
2015/05/29,03:40,0.559,0.330,0.599,0.556,0.484,0.254,0.229,south-southwest,7.7,No
2015/05/29,03:50,0.552,0.333,0.594,0.551,0.478,0.254,0.229,south-southwest,8.2,No
2015/05/29,04:00,0.559,0.330,0.594,0.554,0.481,0.255,0.227,south-southwest,7.5,No
2015/05/29,04:10,0.555,0.333,0.597,0.552,0.481,0.255,0.230,south-southwest,7.5,No
2015/05/29,04:20,0.559,0.331,0.593,0.551,0.478,0.253,0.227,south-southwest,7.8,No
2015/05/29,04:30,0.557,0.333,0.601,0.557,0.481,0.255,0.229,south-southwest,8.3,No
2015/05/29,04:40,0.556,0.331,0.595,0.550,0.475,0.253,0.229,south-southwest,8.9,No
2015/05/29,04:50,0.558,0.333,0.594,0.555,0.481,0.254,0.228,south-southwest,8.0,No
2015/05/29,05:00,0.552,0.330,0.598,0.553,0.478,0.253,0.228,south-southwest,6.5,No
2015/05/29,05:10,0.559,0.332,0.592,0.553,0.481,0.254,0.228,south-southwest,7.3,No
2015/05/29,05:20,0.556,0.332,0.600,0.555,0.480,0.253,0.229,south-southwest,7.2,No
2015/05/29,05:30,0.557,0.328,0.594,0.551,0.476,0.254,0.227,south-southwest,7.0,No
2015/05/29,05:40,0.558,0.333,0.595,0.558,0.481,0.254,0.229,south-southwest,5.9,No
2015/05/29,05:50,0.552,0.330,0.598,0.554,0.478,0.251,0.228,south-southwest,6.1,No
2015/05/29,06:00,0.559,0.331,0.592,0.552,0.477,0.254,0.229,south-southwest,6.2,No
2015/05/29,06:10,0.556,0.331,0.598,0.555,0.483,0.251,0.228,south-southwest,5.4,No
2015/05/29,06:20,0.554,0.328,0.596,0.549,0.477,0.253,0.228,south-southwest,5.2,No
2015/05/29,06:30,0.560,0.331,0.591,0.556,0.483,0.254,0.228,south-southwest,5.3,No
2015/05/29,06:40,0.552,0.330,0.600,0.554,0.481,0.253,0.229,south-southwest,5.4,No
2015/05/29,06:50,0.556,0.328,0.594,0.549,0.475,0.254,0.229,south-southwest,4.3,No
2015/05/29,07:00,0.558,0.331,0.593,0.557,0.483,0.253,0.227,south-southwest,3.9,No
2015/05/29,07:10,0.550,0.330,0.599,0.552,0.481,0.254,0.228,south,3.5,No
2015/05/29,07:20,0.560,0.328,0.593,0.548,0.475,0.254,0.228,south,3.8,No
2015/05/29,07:30,0.554,0.332,0.591,0.556,0.478,0.252,0.226,south,3.7,No
2015/05/29,07:40,0.551,0.332,0.597,0.555,0.481,0.253,0.229,south,4.0,No
2015/05/29,07:50,0.560,0.328,0.593,0.547,0.477,0.253,0.227,south,4.7,No
2015/05/29,08:00,0.557,0.330,0.590,0.552,0.476,0.254,0.228,south,5.4,No
2015/05/29,08:10,0.551,0.332,0.597,0.555,0.482,0.253,0.229,south,5.4,No
2015/05/29,08:20,0.560,0.330,0.597,0.549,0.481,0.254,0.227,south,5.8,No
2015/05/29,08:30,0.558,0.329,0.592,0.550,0.477,0.253,0.227,south,6.8,No
2015/05/29,08:40,0.553,0.331,0.593,0.558,0.480,0.253,0.229,south,6.4,No
2015/05/29,08:50,0.554,0.333,0.598,0.554,0.481,0.255,0.228,south,4.9,No
2015/05/29,09:00,0.559,0.329,0.593,0.549,0.480,0.254,0.228,south,5.6,No
2015/05/29,09:10,0.555,0.329,0.590,0.548,0.477,0.254,0.230,south,4.7,No
2015/05/29,09:20,0.551,0.326,0.594,0.551,0.475,0.254,0.233,south,5.2,No
2015/05/29,09:30,0.553,0.331,0.598,0.557,0.481,0.255,0.233,south,6.7,No
2015/05/29,09:40,0.559,0.330,0.595,0.554,0.481,0.254,0.231,south,5.8,No
2015/05/29,09:50,0.557,0.331,0.591,0.550,0.481,0.253,0.229,south,6.2,No
2015/05/29,10:00,0.551,0.328,0.592,0.548,0.478,0.253,0.226,south,6.2,No
2015/05/29,10:10,0.556,0.326,0.599,0.549,0.475,0.255,0.227,south,2.8,No
2015/05/29,10:20,0.562,0.329,0.597,0.556,0.475,0.254,0.228,south-southeast,3.2,No
2015/05/29,10:30,0.559,0.332,0.591,0.556,0.480,0.253,0.228,south,3.9,No
2015/05/29,10:40,0.554,0.332,0.589,0.552,0.484,0.253,0.227,south-southeast,3.6,No
2015/05/29,10:50,0.552,0.330,0.594,0.549,0.482,0.254,0.228,south,4.9,No
2015/05/29,11:00,0.559,0.329,0.597,0.550,0.477,0.255,0.228,south,3.1,No
2015/05/29,11:10,0.560,0.327,0.596,0.556,0.475,0.253,0.226,south,0.9,No
2015/05/29,11:20,0.555,0.328,0.591,0.557,0.476,0.253,0.227,south,0.7,No
2015/05/29,11:30,0.552,0.332,0.590,0.552,0.481,0.254,0.228,south,0.6,No
2015/05/29,11:40,0.561,0.332,0.598,0.551,0.484,0.255,0.228,-,CALM,No
2015/05/29,11:50,0.560,0.330,0.598,0.558,0.480,0.254,0.227,south-southeast,2.6,No
2015/05/29,12:00,0.554,0.329,0.593,0.558,0.476,0.254,0.230,south-southeast,1.3,No
2015/05/29,12:10,0.557,0.333,0.592,0.552,0.482,0.255,0.229,-,CALM,No
2015/05/29,12:20,0.560,0.332,0.600,0.549,0.482,0.254,0.227,-,CALM,No
2015/05/29,12:30,0.557,0.329,0.599,0.557,0.480,0.253,0.227,-,CALM,No
2015/05/29,12:40,0.555,0.329,0.593,0.555,0.477,0.254,0.227,south-southwest,0.8,No
2015/05/29,12:50,0.563,0.333,0.591,0.551,0.476,0.255,0.227,south,0.7,No
2015/05/29,13:00,0.560,0.331,0.597,0.548,0.481,0.253,0.228,south,0.7,No
2015/05/29,13:10,0.557,0.330,0.602,0.559,0.483,0.255,0.229,east-southeast,2.8,No
2015/05/29,13:20,0.555,0.330,0.596,0.556,0.479,0.254,0.228,-,CALM,No
2015/05/29,13:30,0.559,0.334,0.592,0.551,0.477,0.253,0.226,east-southeast,0.9,No
2015/05/29,13:40,0.557,0.332,0.593,0.552,0.475,0.253,0.229,-,CALM,No
2015/05/29,13:50,0.551,0.329,0.599,0.557,0.485,0.253,0.227,east-southeast,1.2,No
2015/05/29,14:00,0.560,0.328,0.598,0.556,0.481,0.254,0.226,south-southeast,0.7,No
2015/05/29,14:10,0.560,0.332,0.591,0.550,0.478,0.252,0.228,east,1.3,No
2015/05/29,14:20,0.557,0.331,0.593,0.555,0.477,0.255,0.230,east,1.1,No
2015/05/29,14:30,0.555,0.328,0.599,0.556,0.474,0.254,0.228,south-southeast,0.6,No
2015/05/29,14:40,0.559,0.330,0.595,0.552,0.483,0.253,0.227,-,CALM,No
2015/05/29,14:50,0.556,0.334,0.594,0.550,0.482,0.253,0.229,east-southeast,1.1,No
2015/05/29,15:00,0.557,0.330,0.594,0.559,0.478,0.254,0.229,east,2.0,No
2015/05/29,15:10,0.561,0.330,0.597,0.554,0.474,0.254,0.227,east-southeast,2.5,No
2015/05/29,15:20,0.558,0.333,0.595,0.551,0.480,0.254,0.229,east-southeast,3.0,No
2015/05/29,15:30,0.556,0.332,0.590,0.555,0.484,0.254,0.230,east,2.8,No
2015/05/29,15:40,0.563,0.329,0.601,0.557,0.478,0.254,0.227,east-southeast,1.8,No
2015/05/29,15:50,0.556,0.332,0.598,0.552,0.480,0.252,0.228,east-southeast,1.9,No
2015/05/29,16:00,0.556,0.332,0.592,0.555,0.486,0.254,0.230,east-southeast,1.9,Yes
2015/05/29,16:10,0.562,0.331,0.601,0.557,0.479,0.254,0.228,east,2.4,Yes
2015/05/29,16:20,0.554,0.331,0.597,0.550,0.479,0.253,0.228,east-northeast,2.6,Yes
2015/05/29,16:30,0.556,0.329,0.590,0.555,0.480,0.254,0.225,east-northeast,3.0,Yes
2015/05/29,16:40,0.554,0.331,0.598,0.550,0.474,0.253,0.225,east-northeast,3.4,Yes
2015/05/29,16:50,0.555,0.329,0.589,0.546,0.481,0.254,0.227,east-northeast,3.1,Yes
2015/05/29,17:00,0.556,0.327,0.592,0.549,0.473,0.252,0.225,northeast,3.4,Yes
2015/05/29,17:10,0.549,0.327,0.590,0.544,0.474,0.252,0.226,north-northeast,2.8,Yes
2015/05/29,17:20,0.553,0.326,0.584,0.545,0.475,0.252,0.224,north,3.2,Yes
2015/05/29,17:30,0.546,0.328,0.590,0.540,0.470,0.250,0.222,north,3.1,Yes
2015/05/29,17:40,0.549,0.325,0.580,0.544,0.477,0.251,0.221,north,3.9,Yes
2015/05/29,17:50,0.546,0.328,0.584,0.542,0.468,0.248,0.224,north,4.2,No
2015/05/29,18:00,0.544,0.325,0.583,0.538,0.475,0.250,0.221,north-northwest,3.9,No
2015/05/29,18:10,0.551,0.325,0.579,0.541,0.472,0.249,0.223,north-northwest,3.6,No
2015/05/29,18:20,0.544,0.324,0.584,0.535,0.471,0.249,0.222,north-northwest,3.3,No
2015/05/29,18:30,0.551,0.323,0.579,0.542,0.474,0.249,0.221,north,3.2,No
2015/05/29,18:40,0.545,0.325,0.583,0.538,0.466,0.248,0.222,north,2.7,No
2015/05/29,18:50,0.545,0.323,0.583,0.539,0.473,0.249,0.221,north-northeast,2.6,Yes
2015/05/29,19:00,0.547,0.325,0.579,0.541,0.469,0.248,0.223,north-northeast,2.3,Yes
2015/05/29,19:10,0.542,0.324,0.583,0.536,0.469,0.248,0.221,northeast,3.2,Yes
2015/05/29,19:20,0.548,0.323,0.576,0.539,0.472,0.248,0.221,northeast,3.5,Yes
2015/05/29,19:30,0.541,0.323,0.583,0.536,0.467,0.248,0.220,north-northeast,3.8,No
2015/05/29,19:40,0.547,0.322,0.576,0.537,0.473,0.248,0.221,north,3.9,No
2015/05/29,19:50,0.542,0.324,0.581,0.536,0.467,0.246,0.220,north,4.6,No
2015/05/29,20:00,0.546,0.321,0.577,0.536,0.473,0.248,0.220,north,4.5,No
2015/05/29,20:10,0.543,0.324,0.575,0.537,0.468,0.247,0.219,north,3.6,No
2015/05/29,20:20,0.542,0.321,0.579,0.535,0.471,0.247,0.220,north,3.3,No
2015/05/29,20:30,0.546,0.324,0.573,0.540,0.469,0.247,0.219,north,3.8,Yes
2015/05/29,20:40,0.539,0.320,0.579,0.531,0.468,0.246,0.221,north,3.9,Yes
2015/05/29,20:50,0.544,0.322,0.575,0.535,0.470,0.246,0.218,north,3.6,No
2015/05/29,21:00,0.539,0.322,0.578,0.534,0.465,0.246,0.219,north-northwest,3.5,Yes
2015/05/29,21:10,0.541,0.321,0.577,0.533,0.471,0.247,0.217,north-northwest,3.5,Yes
2015/05/29,21:20,0.543,0.322,0.573,0.534,0.465,0.246,0.219,north-northwest,3.1,Yes
2015/05/29,21:30,0.540,0.321,0.578,0.529,0.471,0.246,0.219,north-northwest,1.6,Yes
2015/05/29,21:40,0.543,0.323,0.571,0.534,0.466,0.246,0.219,north-northwest,3.6,Yes
2015/05/29,21:50,0.537,0.320,0.577,0.529,0.469,0.246,0.218,north,3.1,No
2015/05/29,22:00,0.542,0.322,0.571,0.535,0.469,0.247,0.219,north,1.9,No
2015/05/29,22:10,0.541,0.321,0.575,0.530,0.466,0.245,0.217,north-northeast,1.9,No
2015/05/29,22:20,0.541,0.321,0.574,0.532,0.470,0.246,0.218,north-northwest,2.2,No
2015/05/29,22:30,0.542,0.322,0.571,0.533,0.466,0.246,0.218,north,2.5,No
2015/05/29,22:40,0.538,0.319,0.576,0.531,0.471,0.244,0.217,north-northwest,2.0,No
2015/05/29,22:50,0.545,0.322,0.570,0.535,0.470,0.246,0.218,north-northwest,3.1,No
2015/05/29,23:00,0.538,0.320,0.575,0.529,0.465,0.246,0.216,north-northwest,4.1,No
2015/05/29,23:10,0.545,0.322,0.572,0.534,0.471,0.246,0.218,north-northwest,5.1,No
2015/05/29,23:20,0.542,0.320,0.571,0.531,0.465,0.246,0.217,north-northwest,4.7,No
2015/05/29,23:30,0.540,0.320,0.577,0.533,0.471,0.245,0.218,north-northwest,4.1,No
2015/05/29,23:40,0.543,0.322,0.570,0.531,0.468,0.247,0.216,north-northwest,3.1,No
2015/05/29,23:50,0.539,0.321,0.577,0.533,0.472,0.245,0.218,north-northwest,4.9,No
